{"data":{"norad_id":39008,"epoch":"2026-05-24T23:22:38.556768Z","epoch_age_seconds":67320,"freshness":"FRESH","line1":"1 39008U 12065A   26144.97405737  .00000000  00000+0  00000+0 0  9991","line2":"2 39008   0.0145 322.5103 0002266 105.0286 104.1918  1.00269717 49411","mean_motion":1.00269717,"eccentricity":0.0002266,"inclination_deg":0.0145,"raan_deg":322.5103,"arg_perigee_deg":105.0286,"mean_anomaly_deg":104.1918,"bstar":0,"rev_number":4941,"period_min":1436.126522627,"perigee_km":35777.620046992,"apogee_km":35796.729366258,"semimajor_km":42165.311706625,"source":"CELESTRAK","updated_at":"2026-05-25T13:38:13.939169Z"}}